Printer-friendly version

IAU Minor Planet Center

Minor Planet Center

MPEC 2007-C58 : 2007 CM26

The following Minor Planet Electronic Circular may be linked-to from your own Web pages, but must not otherwise be redistributed electronically.


Read MPEC 2007-C57 Read MPEC 2007-C59


M.P.E.C. 2007-C58                                Issued 2007 Feb. 13, 20:19 UT

     The Minor Planet Electronic Circulars contain information on unusual
         minor planets and routine data on comets.  They are published
   on behalf of Commission 20 of the International Astronomical Union by the
          Minor Planet Center, Smithsonian Astrophysical Observatory,
                          Cambridge, MA 02138, U.S.A.

             Prepared using the Tamkin Foundation Computer Network

                              MPC@CFA.HARVARD.EDU
          URL http://cfa-www.harvard.edu/iau/mpc.html  ISSN 1523-6714

                                   2007 CM26

Observations:
     K07C26M* C2007 02 10.32551 09 24 44.96 +12 38 39.2          20.6 V EC058G96
     K07C26M  C2007 02 10.33337 09 24 42.73 +12 39 19.5          21.1 V EC058G96
     K07C26M  C2007 02 10.34117 09 24 40.53 +12 39 59.4          21.1 V EC058G96
     K07C26M  C2007 02 10.34896 09 24 38.34 +12 40 38.5          21.3 V EC058G96
     K07C26M  C2007 02 10.39068 09 24 26.67 +12 44 08.6          20.9 V EC058G96
     K07C26M  C2007 02 10.39448 09 24 25.59 +12 44 28.3          20.6 V EC058G96
     K07C26M  C2007 02 10.39823 09 24 24.58 +12 44 46.5          21.0 V EC058G96
     K07C26M  C2007 02 10.40193 09 24 23.54 +12 45 05.8          19.9 V EC058G96
     K07C26M  C2007 02 13.24861 09 11 51.97 +16 55 24.6          20.6 V EC058G96
     K07C26M  C2007 02 13.25692 09 11 49.41 +16 56 10.1          20.6 V EC058G96
     K07C26M  C2007 02 13.26531 09 11 46.75 +16 56 56.1          20.9 V EC058G96
     K07C26M  C2007 02 13.27380 09 11 44.12 +16 57 42.4          20.5 V EC058G96
     K07C26M  C2007 02 13.34006 09 11 23.35 +17 03 42.0          20.5 V EC058G96
     K07C26M  C2007 02 13.34213 09 11 22.70 +17 03 53.6          20.8 V EC058G96

Observer details:
G96 Mt. Lemmon Survey.  Observers S. M. Larson, A. R. Gibbs.  Measurers
    E. C. Beshore, E. J. Christensen, G. J. Garradd, A. R. Gibbs, A. D. Grauer,
    R. E. Hill, R. A. Kowalski, S. M. Larson, R. H. McNaught.  1.5-m reflector
    + CCD.

Orbital elements:
2007 CM26                                                Earth MOID = 0.0615 AU
Epoch 2007 Apr. 10.0 TT = JDT 2454200.5                 MPC
M 279.73134              (2000.0)            P               Q
n   1.07678651     Peri.  152.02690     +0.42101187     +0.90390773
a   0.9427206      Node   142.73168     -0.85373742     +0.42300531
e   0.1808684      Incl.    7.16203     -0.30640076     +0.06338242
P   0.92           H   25.2           G   0.15           U   8
Residuals in seconds of arc
070210 G96  0.1+  0.5-    070210 G96  0.2-  0.3+    070213 G96  0.2-  0.1+
070210 G96  0.1-  0.0     070210 G96  0.3+  0.4-    070213 G96  0.1+  0.0
070210 G96  0.2-  0.4+    070210 G96  0.1+  0.3+    070213 G96  0.0   0.3-
070210 G96  0.1-  0.1+    070213 G96  0.1-  0.0     070213 G96  0.1-  0.1+
070210 G96  0.1+  0.3-    070213 G96  0.3+  0.0

Ephemeris:
2007 CM26                a,e,i = 0.94, 0.18, 7                   q = 0.7722
Date    TT    R. A. (2000) Decl.     Delta      r     Elong.  Phase     V
2007 02 09    09 30.14   +10 49.3    0.104    1.090   175.9     3.7    20.8
2007 02 14    09 08.30   +18 04.2    0.0971   1.083   169.2     9.8    20.9
2007 02 19    08 42.66   +25 50.0    0.0940   1.075   155.3    22.6    21.3
2007 02 24    08 14.53   +33 15.8    0.0946   1.065   141.5    35.3    21.7
2007 03 01    07 45.57   +39 41.5    0.0982   1.055   128.7    47.1    22.1

Kyle E. Smalley              (C) Copyright 2007 MPC           M.P.E.C. 2007-C58

Read MPEC 2007-C57 Read MPEC 2007-C59


Our Web policy. Index to the CBAT/MPC/ICQ pages.


Valid HTML 4.01!